Location: G�rlitz
(51.1670°N, 15.0000°E)
Time: 20:41:33
(UTC+01:00)

Envisat - Pass Details

Date: 19 February 2026
Orbit: 761 x 763 km, 98.4° (Epoch: 11 March)

Event Time Altitude Azimuth Distance (km) Brightness Sun altitude
Rises 02:19:33 0° 18° (NNE) 3,237 6.9 -42.7°
Reaches altitude 10° 02:21:57 10° 25° (NNE) 2,306 6.0 -42.4°
Enters shadow 02:22:33 13° 27° (NNE) 2,084 5.8 -42.3°
